Zurück zum Katalog

SL-8 R/B

AktivPO
NORAD 21131·ROCKET BODY·🇷🇺 Russia

Gestartet Feb 26, 1991 von Plesetsk Cosmodrome

Loading…

Nächste Überflüge (nächste 24 Stunden)

TLE

AktuellSource: Space-Track

Epoche: Sep 14, 2026, 13:33 UTC

1 21131U 91013B   26257.56467291  .00000046  00000-0  29308-4 0  9990
2 21131  82.8251 119.9010 0062659 207.9751 151.8036 13.80631877790404

Verfolge SL-8 R/B in Echtzeit mit AllMySat

Download on the App Store